TimeEDT,TemperatureF,Dew PointF,Humidity,Sea Level PressureIn,VisibilityMPH,Wind Direction,Wind SpeedMPH,Gust SpeedMPH,PrecipitationIn,Events,Conditions,WindDirDegrees,DateUTC
12:51 AM,62.1,59.0,90,29.96,10.0,WSW,3.5,-,0.01,,Mostly Cloudy,250,2013-05-09 04:51:00
1:51 AM,60.1,57.9,93,29.94,10.0,SW,4.6,-,N/A,,Mostly Cloudy,220,2013-05-09 05:51:00
2:51 AM,61.0,57.9,90,29.95,10.0,WSW,5.8,-,N/A,,Mostly Cloudy,250,2013-05-09 06:51:00
2:58 AM,62.6,57.2,82,29.95,10.0,West,6.9,-,N/A,,Overcast,260,2013-05-09 06:58:00
3:07 AM,62.6,57.2,82,29.95,10.0,West,5.8,-,N/A,,Overcast,260,2013-05-09 07:07:00
3:23 AM,60.8,57.2,88,29.94,10.0,West,6.9,-,N/A,,Mostly Cloudy,270,2013-05-09 07:23:00
3:33 AM,60.8,57.2,88,29.94,10.0,West,4.6,-,N/A,,Partly Cloudy,260,2013-05-09 07:33:00
3:51 AM,60.1,55.9,86,29.94,10.0,West,4.6,-,N/A,,Clear,270,2013-05-09 07:51:00
4:51 AM,57.0,54.0,89,29.95,10.0,SW,3.5,-,N/A,,Clear,230,2013-05-09 08:51:00
5:51 AM,57.9,54.0,87,29.96,10.0,WSW,3.5,-,N/A,,Clear,250,2013-05-09 09:51:00
6:51 AM,57.0,55.0,93,29.99,10.0,West,4.6,-,N/A,,Clear,260,2013-05-09 10:51:00
7:33 AM,59.0,55.4,88,29.99,10.0,West,4.6,-,N/A,,Partly Cloudy,260,2013-05-09 11:33:00
7:51 AM,60.1,55.0,83,30.00,10.0,WSW,5.8,-,N/A,,Partly Cloudy,250,2013-05-09 11:51:00
8:51 AM,63.0,55.9,78,30.01,10.0,SW,8.1,-,N/A,,Clear,220,2013-05-09 12:51:00
9:51 AM,64.9,55.0,70,30.02,10.0,SW,6.9,-,N/A,,Clear,230,2013-05-09 13:51:00
10:51 AM,69.1,55.0,61,30.01,10.0,WSW,10.4,-,N/A,,Clear,240,2013-05-09 14:51:00
11:51 AM,72.0,55.0,55,30.01,10.0,WNW,6.9,-,N/A,,Clear,290,2013-05-09 15:51:00
12:51 PM,75.0,52.0,44,30.00,10.0,West,6.9,-,N/A,,Clear,260,2013-05-09 16:51:00
1:51 PM,77.0,48.9,37,29.99,10.0,Variable,5.8,-,N/A,,Clear,0,2013-05-09 17:51:00
2:51 PM,75.9,48.9,38,29.98,10.0,Variable,5.8,-,N/A,,Partly Cloudy,0,2013-05-09 18:51:00
3:51 PM,77.0,50.0,39,29.97,10.0,WSW,4.6,16.1,N/A,,Scattered Clouds,250,2013-05-09 19:51:00
4:51 PM,79.0,52.0,39,29.97,10.0,WNW,5.8,16.1,N/A,,Partly Cloudy,290,2013-05-09 20:51:00
5:51 PM,78.1,51.1,39,29.97,10.0,WNW,6.9,-,N/A,,Clear,300,2013-05-09 21:51:00
6:51 PM,78.1,52.0,40,29.98,10.0,Variable,3.5,-,N/A,,Mostly Cloudy,0,2013-05-09 22:51:00
7:51 PM,75.0,53.1,46,29.99,10.0,Calm,Calm,-,N/A,,Clear,0,2013-05-09 23:51:00
8:51 PM,70.0,57.9,65,30.01,10.0,Calm,Calm,-,N/A,,Clear,0,2013-05-10 00:51:00
9:51 PM,66.2,57.2,73,30.03,10.0,Calm,Calm,-,N/A,,Clear,0,2013-05-10 01:51:00
10:51 PM,66.0,55.9,70,30.04,10.0,SSW,3.5,-,N/A,,Clear,200,2013-05-10 02:51:00
11:51 PM,64.0,55.9,75,30.04,10.0,SSW,4.6,-,N/A,,Clear,210,2013-05-10 03:51:00